www.pogodaiklimat.ru

Погода и климат >> Архив погоды >> Россия >> Краснодарский край >> Джубга


ПОГОДА в Джубге

  • Прогноз погоды в Джубге
  • Монитор погоды в Джубге

АРХИВ ПОГОДЫ в Джубге

Время (UTC), дата Ветер
(напр.,м/с)
 
Видим.   Явления Облачность Т
(С)
Тd
(С)
f
(%)
Тe
(С)
Тes
(С)
Комфортность P
(гПа)
Po
(гПа)
Тmin
(С)
Tmax
(С)
R
(мм)
R24
(мм)
S
(см)
06 17.05 ЮВ 2 10 км 3/0
[Ci fib]
+20.9 +15.8 73 +25 +34 комфорт 1012.2 1009.7
09 17.05 Ю 1 10 км 3/0
[Ci fib]
+22.7 +14.4 59 +26 +46 жарко 1012.1 1009.7
12 17.05 ЮЗ 1 10 км 6/0
[Cc]
+24.5 +14.5 54 +27 +41 жарко 1009.9 1007.5
15 17.05 С 1 10 км 1/0
[Ci fib]
+29.2 +16.2 45 +32 +35 душно 1007.6 1005.2 +29.5
18 17.05 С 3 10 км 1/0
[Ci fib]
+24.0 +15.2 58 +27 +27 жарко 1006.7 1004.3
21 17.05 С 3 10 км 4/0
[Ac As Cs]
+20.6 +14.1 66 +24 +24 комфорт 1006.7 1004.2
00 18.05 С 2 10 км 8/0
[Ac As Cs]
+17.8 +14.0 78 +18 +18 1005.8 1003.4
03 18.05 С 3 10 км 10/0
[Ac und]
+17.8 +14.0 78 +18 +18 1005.7 1003.2 +17.4
06 18.05 С 2 10 км 8/0
[Ac cast Cs]
+24.1 +16.0 61 +27 +34 жарко 1005.2 1002.8
09 18.05 ЮЗ 1 10 км 6/0
[Cs]
+29.9 +12.6 35 +31 +50 жарко 1005.4 1003.0
12 18.05 З 1 10 км 3/0
[Cs]
+29.5 +13.8 38 +31 +46 жарко 1004.0 1001.6
15 18.05 СВ 3
{11}
10 км 4/0
[Cs]
+28.5 +14.7 43 +31 +33 душно 1001.9 999.5 +31.0
18 18.05 С 1 10 км 8/3 600 м
[Cb cap Cs]
+25.9 +13.6 47 +28 +28 жарко 1003.8 1001.4
21 18.05 В 1 10 км 8/3 600 м
[Cb cap Ac trans Cs]
+22.4 +15.0 63 +26 +26 жарко 1003.7 1001.3
00 19.05 ЮВ 1 10 км 8/0
[Ac trans Cs]
+19.6 +16.9 84 +23 +23 комфорт 1005.1 1002.7
03 19.05 ЮВ 1 10 км 8/0
[Ac As]
+19.8 +16.7 82 +23 +24 комфорт 1005.9 1003.5 +18.7
06 19.05 ЮВ 1 10 км 10/10 600 м
[Cb cap]
+20.0 +17.0 83 +24 +24 комфорт 1008.6 1006.2
09 19.05 Ю 1 10 км 10/10 600 м
[Cb cap]
+19.3 +17.1 87 +22 +22 комфорт 1010.4 1008.0
12 19.05 ЮВ 1 10 км 10/8 600 м
[Cb cap Cs]
+21.0 +16.0 73 +26 +28 душно 1011.6 1009.1
15 19.05 ЮВ 1 10 км 8/5 600 м
[Cb cap Ac As]
+20.0 +15.9 77 +24 +24 комфорт 1011.8 1009.4 +22.5
18 19.05 СВ 1 10 км 8/4 600 м
[Cb cap Ac trans]
+18.3 +15.3 83 +20 +20 1012.1 1009.6
21 19.05 штиль 0 10 км 6/0
[Ac As]
+18.2 +15.4 84 +18 +18 1012.7 1010.2
00 20.05 штиль 0 10 км 8/0
[Ac trans]
+17.8 +15.9 89 +18 +18 1013.5 1011.0
03 20.05 штиль 0 500 м туман 10/5 600 м
[Cb cap Ac trans]
+17.8 +16.2 90 +18 +18 1013.8 1011.3 +17.5
06 20.05 штиль 0 10 км {туман} 10/0
[Ac und]
+19.4 +16.3 82 +21 +25 комфорт 1015.3 1012.8
09 20.05 штиль 0 10 км {ливн. осадки} 10/5 600 м
[Cb cap Ac und]
+20.4 +16.0 76 +23 +27 комфорт 1016.4 1013.9
12 20.05 штиль 0 10 км {ливн. осадки} 8/4 600 м
[Cb cap Ac As]
+22.0 +16.5 71 +26 +32 душно 1015.9 1013.4
15 20.05 СВ 1 10 км 1/1 600 м
[Cu med, cong]
+24.0 +15.5 59 +27 +29 жарко 1014.6 1012.2 +24.1 0.0
18 20.05 СВ 1 10 км ясно +19.5 +15.3 77 +22 +22 комфорт 1015.3 1012.9
21 20.05 СВ 1 10 км ясно +16.8 +14.4 86 +18 +18 1015.8 1013.3
00 21.05 СВ 1 10 км ясно +14.4 +12.9 91 +15 +15 1015.7 1013.2
03 21.05 С 1 10 км 8/8 600 м
[Cu hum]
+14.6 +13.1 91 +15 +15 1016.1 1013.6 +14.4
06 21.05 штиль 0 10 км 1/1 600 м
[Cu hum]
+20.8 +15.7 73 +24 +36 комфорт 1017.1 1014.6
09 21.05 ЮЗ 1 10 км 4/1 600 м
[Cu med, cong Ci fib]
+22.4 +16.2 68 +27 +45 душно 1016.6 1014.2
12 21.05 З 1 10 км 8/0
[Ci]
+23.9 +16.6 64 +27 +41 жарко 1016.5 1014.1
15 21.05 штиль 0 10 км 10/0
[Ac As Cs]
+20.5 +16.6 78 +23 +25 комфорт 1015.5 1013.0 +24.9
18 21.05 З 1 10 км 4/0
[Ac As Ci fib]
+19.5 +15.2 76 +22 +22 комфорт 1014.2 1011.7
21 21.05 С 2 н/о н/о +16.6 +14.5 87 +17 +17 1014.0 1011.5
00 22.05 С 2 10 км ясно +14.9 +13.3 90 +15 +15 1013.3 1010.8
03 22.05 С 1 10 км 10/0
[Ac As]
+15.2 +13.4 89 +16 +16 1013.4 1010.9 +14.6
06 22.05 СЗ 1 10 км в посл. час ливневой дождь 10/10 600 м
[Cb cap]
+17.4 +15.6 89 +18 +18 1014.4 1012.0
09 22.05 Ю 1 10 км 4/3 600 м
[Cb cap Ci fib]
+22.7 +16.6 68 +27 +42 душно 1014.0 1011.5
12 22.05 Ю 2 10 км 6/6 600 м
[Cb cap]
+23.7 +16.9 66 +27 +33 жарко 1014.8 1012.4
15 22.05 ЮВ 1 10 км 9/9 600 м
[Cb cap]
+21.7 +17.9 79 +26 +26 душно 1014.6 1012.1 +25.3 1
18 22.05 штиль 0 10 км 8/8 600 м
[Cb cap]
+19.0 +15.8 82 +20 +20 1014.9 1012.4
21 22.05 Ю 1 10 км 8/8 600 м
[Cb cap]
+18.9 +16.7 87 +21 +21 комфорт 1014.6 1012.1
00 23.05 Ю 1 н/о н/о +18.5 +16.5 88 +20 +20 1013.3 1010.9
03 23.05 Ю 2 10 км ясно +18.6 +16.5 88 +20 +21 1013.3 1010.8 +18.3
06 23.05 ЮВ 1 10 км 8/8 600 м
[Cb cap]
+22.5 +17.6 74 +28 +30 душно 1013.2 1010.8
09 23.05 Ю 1 10 км 10/5 600 м
[Cb cap Ac As]
+23.2 +17.2 69 +28 +32 душно 1013.5 1011.1
12 23.05 Ю 1 10 км 8/4 600 м
[Cb cap Ac trans]
+23.6 +17.9 70 +28 +33 душно 1013.4 1011.0
15 23.05 ЮВ 1 10 км 6/6 600 м
[Cb cap]
+21.7 +17.3 76 +26 +27 душно 1013.0 1010.6 +25.1
18 23.05 ЮВ 2 10 км 8/8 600 м
[Cb cap]
+19.7 +16.3 81 +23 +23 комфорт 1013.1 1010.6
21 23.05 ЮВ 1 10 км 6/6 600 м
[Cb cap]
+19.0 +16.0 83 +21 +21 комфорт 1012.6 1010.1
00 24.05 ЮВ 1 10 км ясно +18.9 +15.6 81 +21 +21 комфорт 1012.1 1009.6
03 24.05 В 1 10 км 3/3 600 м
[Cb cap]
+18.1 +15.0 82 +19 +20 1011.4 1008.9 +17.9

 

Местоположение метеостанции Джубга (Краснодарский край, Россия): широта 44.33 долгота 38.72 высота над уровнем моря 23 м.

В архиве по умолчанию представлена погода в Джубге за последнюю неделю. Архивные данные за месяц целиком и за предыдущие месяцы, начиная с января 2011 года, Вы можете получить, выбрав интересующий диапазон дат из раскрывающегося списка и нажав кнопку "Ввод!".


*Определитесь, кто Вы:
робот инопланетянин человек

Внимание! Время в таблицах - всемирное. Для получения местного времени необходимо прибавить поправку, которая равна 3 ч.

Смотрите также архив погоды в соседних городах и на ближайших метеорологических станциях:

Погода в Туапсе (Краснодарский край, Россия) (38 км)
Погода в Горном (Краснодарский край, Россия) (44 км)
Погода в Горячем Ключе (Краснодарский край, Россия) (45 км)
Погода в Магри (Краснодарский край, Россия) (49 км)
Погода в Геленджике (Краснодарский край, Россия) (57 км)
Погода в Лазаревском (Краснодарский край, Россия) (68 км)
Погода в Новороссийске (Краснодарский край, Россия) (81 км)
Погода в Краснодаре (Краснодарский край, Россия) (84 км)
Погода в Кичмае (Краснодарский край, Россия) (84 км)
Погода в Крымске (Краснодарский край, Россия) (87 км)

Пояснения к столбцам:

Ветер - указаны скорость ветра в м/с - средняя за 10 мин, порывы в срок и между сроками (в фигурных скобках) и направление, откуда дует ветер: С - северный, СВ - северо-восточный, В - восточный, ЮВ - юго-восточный, Ю - южный, ЮЗ - юго-западный, З - западный, СЗ - северо-западный.
Видимость - горизонтальная дальность видимости в метрах или километрах. При видимости от 1 до 10 км при отсутствии осадков обычно наблюдается дымка, при ухудшении видимости до 1 км и менее - туман. В сухую погоду видимость может ухудшаться дымом, пылью или мглою.
Явления - указаны атмосферные явления, наблюдавшиеся в срок или в последний час перед сроком; фигурными скобками обозначены явления, наблюдавшиеся между сроками (за 1-3 часа до срока); квадратными скобками обозначены град или гололедные отложения с указанием их диаметра в мм.
Облачность - указаны через наклонную черту общая и нижняя облачность в баллах и высота нижней границы облаков в метрах; квадратными скобками обозначены формы облаков: Ci - перистые, Cs - перисто-слоистые, Cc - перисто-кучевые, Ac - высококучевые, As - высокослоистые, Sc - слоисто-кучевые, Ns - слоисто-дождевые, Cu - кучевые, Cb - кучево-дождевые. Подробнее классификацию облаков см. в Атласе облаков (PDF).
T - Температура воздуха - температура, измеренная на высоте 2 м над землей.
Td - Температура точки росы - температура, при понижении до которой содержащийся в воздухе водяной пар достигнет насыщения.
f - Относительная влажность воздуха - влажноcть воздуха, измеренная на высоте 2 м над землей.
Te - Эффективная температура - температура, которую ощущает одетый по сезону человек в тени. Характеристика душности погоды. При расчете учитывается влияние влажности воздуха и скорости ветра на теплоощущения человека.
Tes - Эффективная температура на солнце - температура, которую ощущает человек, с поправкой на солнечный нагрев. Характеристика знойности погоды. Зависит от высоты солнца над горизонтом, облачности и скорости ветра. Ночью, в пасмурную погоду, а также при ветре 12 м/с и более поправка равна нулю.
P - Атмосферное давление - приведенное к уровню моря атмосферное давление.
Po - Атмосферное давление - измеренное на уровне метеостанции атмосферное давление.
Tmin - Минимальная температура - минимум температуры воздуха на высоте 2 м над землей.
Tmax - Максимальная температура - максимум температуры воздуха на высоте 2 м над землей.
R - Количество осадков - Количество выпавших осадков за период времени, мм. При наведении курсора мыши на число - период времени, за который выпало указанное количество осадков.
R24 - Количество осадков - Количество выпавших осадков за 24 часа, мм.
S - Снежный покров - Высота снежного покрова, см. При наведении курсора мыши на число - состояние снежного покрова и степень покрытия местности в баллах.